Regional Weather Roundup
Issued by NWS

Home | Current Version | Previous Version | Graphics & Text | Print | Product List | Glossary On
Versions: 1 2 3 4 5 6 7 8 9 10 11 12 13 14 15 16 17 18 19 20 21 22 23 24 25 26 27 28 29 30 31 32 33 34 35 36 37 38 39 40 41 42 43 44 45 46 47 48 49 50
000
ASUS43 KOAX 231402
RWRNE

WEATHER ROUNDUP FOR NEBRASKA
NATIONAL WEATHER SERVICE OMAHA NE
900 AM CDT MON APR 23 2018

NOTES: SATELLITE DATA IS BEING USED TO AUGMENT CLOUD COVER ABOVE
       12000 FEET.
       "FAIR" INDICATES FEW OR NO CLOUDS BELOW 12,000 FEET WITH NO
       SIGNIFICANT WEATHER AND/OR OBSTRUCTIONS TO VISIBILITY.


NEZ001>004-019>022-054>056-231500-
NEBRASKA PANHANDLE

CITY           SKY/WX    TMP DP  RH WIND       PRES   REMARKS
SCOTTSBLUFF    SUNNY     43  39  86 E13       30.10S
ALLIANCE       SUNNY     43  39  86 S10       30.11S
CHADRON        SUNNY     48  39  71 SW3       30.09S
GORDON         FAIR      44  38  80 CALM      30.12S
KIMBALL        SUNNY     40  38  93 S5        30.11S
SIDNEY         MOSUNNY   46  39  76 S9        30.12R
$$

NEZ057>060-069>072-079>082-231500-
SOUTHWEST NEBRASKA

CITY           SKY/WX    TMP DP  RH WIND       PRES   REMARKS
NORTH PLATTE   SUNNY     45  40  82 SE5       30.18S HAZE
IMPERIAL       SUNNY     46  41  82 S6        30.17S
LEXINGTON      SUNNY     47  41  80 CALM      30.19S
MCCOOK         SUNNY     42  39  89 CALM      30.19R FOG
OGALLALA       SUNNY     41  38  87 CALM      30.17S
$$

NEZ005>010-023>029-035>040-094-231500-
NORTH CENTRAL NEBRASKA

CITY           SKY/WX    TMP DP  RH WIND       PRES   REMARKS
VALENTINE      SUNNY     47  41  80 CALM      30.16S
AINSWORTH      SUNNY     51  44  77 S6        30.17F
BROKEN BOW     SUNNY     48  43  82 CALM      30.18S
O`NEILL        SUNNY     52  41  67 S5        30.20S
ORD            MOSUNNY   44  39  82 CALM      30.19S
THEDFORD       SUNNY     46  41  80 SE5       30.19R
$$

NEZ041-046>049-061>064-073>077-083>087-231500-
SOUTH CENTRAL NEBRASKA

CITY           SKY/WX    TMP DP  RH WIND       PRES   REMARKS
GRAND ISLAND   SUNNY     51  36  56 E5        30.20S
AURORA         SUNNY     51  34  52 CALM      30.20S
HASTINGS       SUNNY     52  39  61 VRB3      30.20R
HEBRON         SUNNY     49  40  68 CALM      30.19S
HOLDREGE       SUNNY     51  42  72 NE3       30.19S
KEARNEY        SUNNY     50  40  68 CALM      30.20S
YORK             N/A     55  37  50 CALM      30.20S
$$

NEZ011>018-030>034-042>045-231500-
NORTHEAST NEBRASKA

CITY           SKY/WX    TMP DP  RH WIND       PRES   REMARKS
NORFOLK        SUNNY     48  38  68 CALM      30.20S
ALBION         SUNNY     50  38  62 CALM      30.19F
BLAIR          SUNNY     52  33  47 NE6       30.20S
FREMONT        SUNNY     51  34  51 CALM      30.21S
TEKAMAH        SUNNY     49  38  65 N6        30.21S
WAYNE          SUNNY     45  44  97 CALM      30.21S
$$

NEZ050>053-065>068-078-088>093-231500-
SOUTHEAST NEBRASKA

CITY           SKY/WX    TMP DP  RH WIND       PRES   REMARKS
LINCOLN        SUNNY     51  34  52 N5        30.20F
OMAHA EPPLEY   MOSUNNY   50  32  50 N7        30.21R
BEATRICE       SUNNY     54  39  56 CALM      30.18S
FALLS CITY     CLOUDY    48  34  58 NW5       30.17R
NEBRASKA CITY  SUNNY     54  33  45 NE5       30.18F
PLATTSMOUTH    SUNNY     53  31  43 NE5       30.19F
$$

NEZ044-045-051>053-067-231500-
OMAHA AREA

CITY           SKY/WX    TMP DP  RH WIND       PRES   REMARKS
OMAHA EPPLEY   MOSUNNY   50  32  50 N7        30.21R
BLAIR          SUNNY     52  33  47 NE6       30.20S
FREMONT        SUNNY     51  34  51 CALM      30.21S
MILLARD        SUNNY     55  32  42 CALM      30.20S
OFFUTT AFB     SUNNY     52  32  45 CALM      30.19S
PLATTSMOUTH    SUNNY     53  31  43 NE5       30.19F
WAHOO          FAIR      53  30  40 CALM      30.20S
$$




USA.gov is the U.S. government's official web portal to all federal, state and local government web resources and services.